Waco, TX

8:59 AM CDT on September 27, 2016 (GMT -0500)
Waco Regional

Weather History for KACT - December, 2012

Change the Weather History Date:

Monday, December 10, 2012

  Actual Average Record
Temperature  
Mean Temperature 39 °F 49 °F  
Max Temperature 49 °F 60 °F 80 °F (1938)
Min Temperature 28 °F 38 °F 18 °F (1919)
Degree Days  
Heating Degree Days 26 16  
Month to date heating degree days 46 150  
Since 1 July heating degree days 372 478  
Cooling Degree Days 0 0  
Month to date cooling degree days 23 0  
Year to date cooling degree days 3235 2792  
Moisture  
Dew Point 16 °F    
Average Humidity 42    
Maximum Humidity 56    
Minimum Humidity 28    
Precipitation  
Precipitation 0.00 in 0.09 in 2.57 in (1998)
Month to date precipitation 0.00 0.88  
Year to date precipitation 31.53 32.82  
Snow  
Snow 0.00 in 0.00 in T in (1986)
Month to date snowfall 0.0 0.0  
Since 1 July snowfall 0.0 0.1  
Snow Depth 0.00 in    
Sea Level Pressure  
Sea Level Pressure 30.13 in    
Wind  
Wind Speed 15 mph (NNW)    
Max Wind Speed 29 mph    
Max Gust Speed 38 mph    
Visibility 10 miles    
Events      
T = Trace of Precipitation, MM = Missing Value Source: NWS Daily Summary

Daily Weather History Graph

Daily Weather History Graph

Search for Another Location

Airport or City:

Trip Planner

Search our weather history database for the weather conditions in past years. The results will help you decide how hot, cold, wet, or windy it might be!

Date:

Astronomy

Dec. 10, 2012 Rise Set
Actual Time 7:18 AM CST 5:25 PM CST
Civil Twilight 6:51 AM CST 5:52 PM CST
Nautical Twilight 6:20 AM CST 6:23 PM CST
Astronomical Twilight 5:51 AM CST 6:52 PM CST
Moon 4:09 AM CST (12/10) 3:10 PM CST (12/10)
Length of Visible Light 11h 01m
Length of Day
10h 07m
Waning Crescent, 10% of the Moon is Illuminated
Dec 10
Waning Crescent
Dec 13
New
Dec 19
First Quarter
Dec 28
Full
Jan 4
Last Quarter

Hourly Weather History & Observations

Time (CST) Temp. Windchill Dew Point Humidity Pressure Visibility Wind Dir Wind Speed Gust Speed Precip Events Conditions
12:51 AM 44.1 °F 36.8 °F 19.0 °F 37% 30.03 in 10.0 mi NNW 16.1 mph 24.2 mph N/A   Overcast
1:51 AM 41.0 °F 31.6 °F 15.1 °F 35% 30.04 in 10.0 mi North 20.7 mph 29.9 mph N/A   Overcast
2:51 AM 39.9 °F 29.0 °F 14.0 °F 35% 30.06 in 10.0 mi NNW 26.5 mph 36.8 mph N/A   Overcast
3:51 AM 39.0 °F 29.0 °F 12.9 °F 34% 30.10 in 10.0 mi NNW 20.7 mph 32.2 mph N/A   Overcast
4:51 AM 37.9 °F 26.8 °F 12.0 °F 35% 30.12 in 10.0 mi North 24.2 mph 32.2 mph N/A   Overcast
5:51 AM 37.0 °F 28.1 °F 10.9 °F 34% 30.13 in 10.0 mi NNW 15.0 mph 25.3 mph N/A   Overcast
6:51 AM 37.0 °F 26.2 °F 14.0 °F 39% 30.15 in 10.0 mi NNW 21.9 mph 29.9 mph N/A   Overcast
7:51 AM 35.1 °F 25.9 °F 18.0 °F 50% 30.17 in 10.0 mi NNW 13.8 mph - N/A   Partly Cloudy
8:51 AM 36.0 °F 26.7 °F 21.9 °F 57% 30.18 in 10.0 mi NNW 15.0 mph - N/A   Clear
9:51 AM 37.0 °F 25.9 °F 18.0 °F 46% 30.19 in 10.0 mi NNW 23.0 mph 27.6 mph N/A   Clear
10:51 AM 39.9 °F 30.8 °F 19.9 °F 45% 30.18 in 10.0 mi NNW 18.4 mph 26.5 mph N/A   Clear
11:51 AM 42.1 °F 34.2 °F 19.0 °F 40% 30.17 in 10.0 mi NW 16.1 mph - N/A   Clear
12:51 PM 44.1 °F 36.2 °F 17.1 °F 34% 30.14 in 10.0 mi North 18.4 mph 23.0 mph N/A   Clear
1:51 PM 45.0 °F 37.9 °F 16.0 °F 31% 30.12 in 10.0 mi NNW 16.1 mph 26.5 mph N/A   Clear
2:51 PM 46.9 °F - 16.0 °F 29% 30.11 in 10.0 mi NNW 16.1 mph 24.2 mph N/A   Clear
3:51 PM 46.0 °F 39.6 °F 15.1 °F 29% 30.09 in 10.0 mi NNW 15.0 mph 23.0 mph N/A   Clear
4:51 PM 44.1 °F 37.7 °F 14.0 °F 30% 30.09 in 10.0 mi North 12.7 mph - N/A   Clear
5:51 PM 39.0 °F 34.8 °F 14.0 °F 36% 30.11 in 10.0 mi North 5.8 mph - N/A   Clear
6:51 PM 36.0 °F 31.1 °F 15.1 °F 43% 30.12 in 10.0 mi NW 5.8 mph - N/A   Clear
7:51 PM 34.0 °F 28.8 °F 15.1 °F 46% 30.14 in 10.0 mi NNW 5.8 mph - N/A   Clear
8:51 PM 35.1 °F 29.3 °F 16.0 °F 46% 30.14 in 10.0 mi NNW 6.9 mph - N/A   Clear
9:51 PM 30.9 °F 25.2 °F 16.0 °F 54% 30.14 in 10.0 mi NNW 5.8 mph - N/A   Clear
10:51 PM 34.0 °F 26.6 °F 16.0 °F 48% 30.16 in 10.0 mi NNW 9.2 mph - N/A   Clear
11:51 PM 28.9 °F 25.2 °F 15.1 °F 56% 30.16 in 10.0 mi NW 3.5 mph - N/A   Clear